Location: The Saddle
(36.8333°N, 80.3417°W)
Time: 17:59:41
(UTC-04:00)

BlueWalker 3 - Pass Details

Date: 17 October 2024
Orbit: 471 x 482 km, 53.2° (Epoch: 02 November)

Event Time Altitude Azimuth Distance (km) Brightness Sun altitude
Exits shadow 06:34:25 - 332° (NNW) 2,235 4.9 -12.1°
Reaches altitude 10° 06:36:56 10° 359° (N) 1,633 4.5 -11.6°
Maximum altitude 06:38:22 12° 23° (NNE) 1,520 4.6 -11.3°
Drops below altitude 10° 06:39:49 10° 46° (NE) 1,633 5.2 -11.0°
Sets 06:43:12 0° 79° (E) 2,510 7.2 -10.4°
